• In Hungary
  • List of Countries
  • For 7 days
  • Water Temperature
  • Satellite Maps
  • Weather Map
  • News
  • Weather Widgets
  • user-avatar
    Login

    Hourly Weather Pavlikovo

    Today, 22 April, Sunday

    Time Temperature Precipitation Wind Pressure Humidity
    00:00 +3°C° 0 mm 7 mps 725 mmHg 74%
    01:00 +2°C° 0 mm 6 mps 725 mmHg 75%
    02:00 +3°C° 0 mm 4 mps 725 mmHg 77%
    03:00 +1°C° 0 mm 4 mps 726 mmHg 78%
    04:00 +1°C° 0 mm 4 mps 726 mmHg 78%
    05:00 +1°C° 0 mm 5 mps 726 mmHg 78%
    06:00 +1°C° 0 mm 5 mps 727 mmHg 75%
    07:00 +1°C° 0 mm 5 mps 727 mmHg 72%
    08:00 +3°C° 0 mm 4 mps 727 mmHg 69%
    09:00 +3°C° 0 mm 4 mps 728 mmHg 66%
    10:00 +2°C° 0 mm 5 mps 728 mmHg 64%
    11:00 +2°C° 0 mm 5 mps 729 mmHg 62%
    12:00 +2°C° 0 mm 5 mps 729 mmHg 60%
    13:00 +2°C° 0 mm 5 mps 730 mmHg 59%
    14:00 +2°C° 0 mm 5 mps 730 mmHg 58%
    15:00 +2°C° 0 mm 5 mps 731 mmHg 58%
    16:00 +2°C° 0 mm 5 mps 731 mmHg 58%
    17:00 +1°C° 0 mm 4 mps 732 mmHg 58%
    18:00 +1°C° 0 mm 4 mps 732 mmHg 61%
    19:00 +1°C° 0 mm 3 mps 733 mmHg 64%
    20:00 0°C° 0 mm 3 mps 734 mmHg 67%
    21:00 0°C° 0 mm 3 mps 734 mmHg 69%
    22:00 -1°C° 0 mm 2 mps 735 mmHg 72%
    23:00 -2°C° 0 mm 2 mps 735 mmHg 74%

    Tomorrow, 23 April, Monday

    Time Temperature Precipitation Wind Pressure Humidity
    00:00 -2°C° 0 mm 2 mps 735 mmHg 77%
    01:00 -3°C° 0 mm 2 mps 736 mmHg 79%
    02:00 -4°C° 0 mm 2 mps 736 mmHg 81%
    03:00 -4°C° 0 mm 2 mps 737 mmHg 81%
    04:00 -4°C° 0 mm 2 mps 737 mmHg 80%
    05:00 -4°C° 0 mm 2 mps 737 mmHg 80%
    06:00 -2°C° 0 mm 2 mps 738 mmHg 70%
    07:00 -1°C° 0 mm 3 mps 738 mmHg 60%
    08:00 +1°C° 0 mm 3 mps 738 mmHg 50%
    09:00 +2°C° 0 mm 3 mps 738 mmHg 46%
    10:00 +3°C° 0 mm 3 mps 738 mmHg 43%
    11:00 +4°C° 0 mm 3 mps 738 mmHg 39%
    12:00 +5°C° 0 mm 3 mps 738 mmHg 38%
    13:00 +5°C° 0 mm 3 mps 738 mmHg 37%
    14:00 +7°C° 0 mm 3 mps 738 mmHg 36%
    15:00 +7°C° 0 mm 2 mps 738 mmHg 37%
    16:00 +7°C° 0 mm 2 mps 737 mmHg 39%
    17:00 +6°C° 0 mm 2 mps 737 mmHg 40%
    18:00 +6°C° 0 mm 1 mps 737 mmHg 47%
    19:00 +4°C° 0 mm 1 mps 737 mmHg 54%
    20:00 +2°C° 0 mm 1 mps 738 mmHg 61%
    21:00 +2°C° 0 mm 1 mps 738 mmHg 62%
    22:00 +1°C° 0 mm 1 mps 738 mmHg 64%
    23:00 +1°C° 0 mm 1 mps 738 mmHg 66%

    Day after tomorrow, 24 April, Tuesday

    Time Temperature Precipitation Wind Pressure Humidity
    00:00 0°C° 0 mm 1 mps 737 mmHg 67%
    01:00 0°C° 0 mm 1 mps 737 mmHg 68%
    02:00 0°C° 0 mm 1 mps 737 mmHg 69%
    03:00 0°C° 0 mm 1 mps 737 mmHg 69%
    04:00 -2°C° 0 mm 2 mps 737 mmHg 69%
    05:00 -2°C° 0 mm 2 mps 737 mmHg 68%
    06:00 +1°C° 0 mm 2 mps 736 mmHg 62%
    07:00 +3°C° 0 mm 2 mps 736 mmHg 56%
    08:00 +5°C° 0 mm 2 mps 736 mmHg 50%
    09:00 +5°C° 0 mm 3 mps 736 mmHg 47%
    10:00 +8°C° 0 mm 3 mps 736 mmHg 44%
    11:00 +9°C° 0 mm 3 mps 735 mmHg 41%
    12:00 +9°C° 0 mm 3 mps 735 mmHg 43%
    13:00 +8°C° 0 mm 4 mps 734 mmHg 44%
    14:00 +10°C° 0 mm 4 mps 734 mmHg 45%
    15:00 +9°C° 0 mm 3 mps 734 mmHg 50%
    16:00 +9°C° 0 mm 3 mps 733 mmHg 54%
    17:00 +9°C° 0 mm 3 mps 733 mmHg 58%
    18:00 +8°C° 0.2 mm 3 mps 733 mmHg 65%
    19:00 +7°C° 0.2 mm 3 mps 733 mmHg 72%
    20:00 +6°C° 0.2 mm 2 mps 732 mmHg 79%
    21:00 +6°C° 0.1 mm 2 mps 732 mmHg 84%
    22:00 +5°C° 0.1 mm 2 mps 732 mmHg 88%
    23:00 +5°C° 0.1 mm 2 mps 732 mmHg 92%

    25 April, Wednesday

    Time Temperature Precipitation Wind Pressure Humidity
    00:00 +5°C° 0 mm 2 mps 731 mmHg 94%
    01:00 +5°C° 0 mm 2 mps 731 mmHg 96%
    02:00 +5°C° 0 mm 2 mps 731 mmHg 97%
    03:00 +5°C° 0 mm 2 mps 731 mmHg 97%
    04:00 +5°C° 0 mm 2 mps 731 mmHg 97%
    05:00 +4°C° 0 mm 3 mps 731 mmHg 96%
    06:00 +5°C° 0.1 mm 3 mps 730 mmHg 93%
    07:00 +5°C° 0.1 mm 3 mps 730 mmHg 89%
    08:00 +7°C° 0.1 mm 3 mps 730 mmHg 85%
    09:00 +6°C° 0 mm 4 mps 730 mmHg 84%
    10:00 +7°C° 0 mm 4 mps 730 mmHg 82%
    11:00 +7°C° 0 mm 4 mps 730 mmHg 80%
    12:00 +8°C° 0.1 mm 4 mps 729 mmHg 79%
    13:00 +8°C° 0.1 mm 4 mps 729 mmHg 77%
    14:00 +10°C° 0.1 mm 4 mps 729 mmHg 75%
    15:00 +8°C° 0.8 mm 4 mps 728 mmHg 79%
    16:00 +8°C° 0.8 mm 4 mps 728 mmHg 84%
    17:00 +7°C° 0.8 mm 4 mps 727 mmHg 88%
    18:00 +7°C° 0.1 mm 4 mps 727 mmHg 88%
    19:00 +6°C° 0.1 mm 4 mps 728 mmHg 87%
    20:00 +5°C° 0.1 mm 4 mps 728 mmHg 86%
    21:00 +5°C° 0 mm 4 mps 728 mmHg 88%
    22:00 +4°C° 0 mm 3 mps 728 mmHg 89%
    23:00 +3°C° 0 mm 3 mps 728 mmHg 90%

    26 April, Thursday

    Time Temperature Precipitation Wind Pressure Humidity
    00:00 +3°C° 0 mm 3 mps 729 mmHg 91%
    01:00 +3°C° 0 mm 3 mps 729 mmHg 91%
    02:00 +2°C° 0 mm 3 mps 729 mmHg 91%
    03:00 +2°C° 0 mm 3 mps 729 mmHg 91%
    04:00 +3°C° 0 mm 3 mps 729 mmHg 90%
    05:00 +3°C° 0 mm 3 mps 729 mmHg 90%
    06:00 +4°C° 0 mm 4 mps 729 mmHg 87%
    07:00 +4°C° 0 mm 4 mps 729 mmHg 84%
    08:00 +5°C° 0 mm 4 mps 729 mmHg 82%
    09:00 +6°C° 0 mm 4 mps 730 mmHg 80%
    10:00 +6°C° 0 mm 4 mps 730 mmHg 79%
    11:00 +6°C° 0 mm 4 mps 730 mmHg 77%
    12:00 +8°C° 0 mm 4 mps 730 mmHg 70%
    13:00 +10°C° 0 mm 4 mps 731 mmHg 62%
    14:00 +12°C° 0 mm 4 mps 731 mmHg 55%
    15:00 +11°C° 0.1 mm 4 mps 731 mmHg 55%
    16:00 +11°C° 0.1 mm 4 mps 731 mmHg 56%
    17:00 +11°C° 0.1 mm 3 mps 731 mmHg 57%
    18:00 +9°C° 0 mm 3 mps 732 mmHg 64%
    19:00 +8°C° 0 mm 2 mps 732 mmHg 71%
    20:00 +6°C° 0 mm 2 mps 732 mmHg 78%
    21:00 +6°C° 0 mm 2 mps 732 mmHg 79%
    22:00 +5°C° 0 mm 2 mps 733 mmHg 81%
    23:00 +5°C° 0 mm 2 mps 733 mmHg 82%

    27 April, Friday

    Time Temperature Precipitation Wind Pressure Humidity
    00:00 +5°C° 0 mm 2 mps 733 mmHg 84%
    01:00 +5°C° 0 mm 2 mps 733 mmHg 85%
    02:00 +5°C° 0 mm 2 mps 733 mmHg 87%
    03:00 +5°C° 0.5 mm 2 mps 732 mmHg 89%
    04:00 +4°C° 0.5 mm 3 mps 732 mmHg 91%
    05:00 +5°C° 0.5 mm 3 mps 732 mmHg 93%
    06:00 +7°C° 0.1 mm 3 mps 732 mmHg 90%
    07:00 +7°C° 0.1 mm 3 mps 732 mmHg 88%
    08:00 +8°C° 0.1 mm 3 mps 732 mmHg 85%
    09:00 +9°C° 0.1 mm 3 mps 732 mmHg 82%
    10:00 +10°C° 0.1 mm 3 mps 732 mmHg 78%
    11:00 +10°C° 0.1 mm 3 mps 732 mmHg 75%
    12:00 +11°C° 0.3 mm 3 mps 732 mmHg 70%
    13:00 +12°C° 0.3 mm 3 mps 732 mmHg 64%
    14:00 +13°C° 0.3 mm 3 mps 732 mmHg 59%
    15:00 +12°C° 0.3 mm 3 mps 732 mmHg 60%
    16:00 +12°C° 0.3 mm 3 mps 732 mmHg 62%
    17:00 +12°C° 0.3 mm 3 mps 732 mmHg 63%
    18:00 +10°C° 0.1 mm 3 mps 732 mmHg 69%
    19:00 +8°C° 0.1 mm 3 mps 732 mmHg 75%
    20:00 +7°C° 0.1 mm 3 mps 733 mmHg 82%
    21:00 +5°C° 0 mm 3 mps 733 mmHg 83%
    22:00 +5°C° 0 mm 3 mps 733 mmHg 85%
    23:00 +4°C° 0 mm 3 mps 734 mmHg 86%
    Show more